Location: Unspecified
(42.3650°N, 71.1030°W)
Time: 17:24:56
(UTC+00:00)

Transit 2A - Pass Details

Date: 25 June 2024
Orbit: 591 x 960 km, 66.7° (Epoch: 16 July)

Event Time Altitude Azimuth Distance (km) Brightness Sun altitude
Rises 05:35:55 0° 314° (NW) 3,592 9.9 -23.3°
Reaches altitude 10° 05:39:10 10° 298° (WNW) 2,675 9.0 -23.2°
Enters shadow 05:43:20 19° 256° (WSW) 2,097 8.0 -23.0°
